Concord, NH

7:48 PM EDT on April 23, 2018 (GMT -0400)
Concord Municipal

Weather History for KCON - August, 2014

Change the Weather History Date:

Monday, August 4, 2014

  Actual Average Record
Temperature  
Mean Temperature 72 °F 70 °F  
Max Temperature 85 °F 82 °F 97 °F (1944)
Min Temperature 58 °F 58 °F 41 °F (1964)
Degree Days  
Heating Degree Days 0 0  
Month to date heating degree days 0 0  
Since 1 June heating degree days 56 102  
Since 1 July heating degree days 0 17  
Cooling Degree Days 7 5  
Month to date cooling degree days 13 23  
Year to date cooling degree days 263 297  
Since 1 June cooling degree days 261 279  
Growing Degree Days 20 (Base 50)    
Moisture  
Dew Point 62 °F    
Average Humidity 76    
Maximum Humidity 100    
Minimum Humidity 51    
Precipitation  
Precipitation 0.00 in 0.11 in 2.45 in (1885)
Month to date precipitation T 0.46  
Year to date precipitation 29.06 23.55  
Snow  
Snow 0.00 in 0.00 in 0.00 in (2002)
Month to date snowfall 0.0 0.0  
Since 1 June snowfall 0.0 0.0  
Since 1 July snowfall 0.0 0.0  
Snow Depth 0.00 in    
Sea Level Pressure  
Sea Level Pressure 30.02 in    
Wind  
Wind Speed 2 mph (West)    
Max Wind Speed 10 mph    
Max Gust Speed 14 mph    
Visibility 6 miles    
Events Fog , Thunderstorm    
T = Trace of Precipitation, MM = Missing Value Source: NWS Daily Summary

Daily Weather History Graph

Daily Weather History Graph

Search for Another Location

Airport or City:

Astronomy

Aug. 04, 2014 Rise Set
Actual Time 5:39 AM EDT 8:03 PM EDT
Civil Twilight 5:07 AM EDT 8:35 PM EDT
Nautical Twilight 4:27 AM EDT 9:15 PM EDT
Astronomical Twilight 3:42 AM EDT 9:59 PM EDT
Moon 2:12 PM EDT (8/4) No Moon Set
Length of Visible Light 15h 28m
Length of Day
14h 24m
First Quarter, 57% of the Moon is Illuminated
Aug 4
First Quarter
Aug 10
Full
Aug 17
Last Quarter
Aug 25
New
Sep 2
First Quarter

Hourly Weather History & Observations

Time (EDT) Temp. Heat Index Dew Point Humidity Pressure Visibility Wind Dir Wind Speed Gust Speed Precip Events Conditions
12:51 AM 62.1 °F - 61.0 °F 96% 30.05 in 7.0 mi Calm Calm - N/A   Clear
1:51 AM 60.8 °F - 59.0 °F 94% 30.05 in 7.0 mi Calm Calm - N/A   Partly Cloudy
2:51 AM 60.8 °F - 59.0 °F 94% 30.04 in 8.0 mi Calm Calm - N/A   Clear
3:25 AM 59.0 °F - 59.0 °F 100% 30.03 in 1.5 mi Calm Calm - N/A   Clear
3:31 AM 59.0 °F - 57.9 °F 96% 30.03 in 1.0 mi Calm Calm - N/A   Mist
3:34 AM 60.1 °F - 57.9 °F 93% 30.03 in 1.5 mi Calm Calm - N/A   Partly Cloudy
3:36 AM 60.1 °F - 59.0 °F 96% 30.03 in 3.0 mi Calm Calm - N/A   Partly Cloudy
3:51 AM 57.9 °F - 57.9 °F 100% 30.03 in 7.0 mi Calm Calm - N/A   Mostly Cloudy
4:23 AM 59.0 °F - 59.0 °F 100% 30.03 in 1.8 mi Calm Calm - N/A   Overcast
4:30 AM 59.0 °F - 59.0 °F 100% 30.03 in 1.0 mi Calm Calm - N/A   Overcast
4:40 AM 59.0 °F - 59.0 °F 100% 30.03 in 0.5 mi Calm Calm - N/A Fog Fog
4:51 AM 59.0 °F - 59.0 °F 100% 30.03 in 1.0 mi Calm Calm - N/A   Overcast
4:59 AM 59.0 °F - 59.0 °F 100% 30.03 in 0.5 mi Calm Calm - N/A Fog Fog
5:13 AM 59.0 °F - 59.0 °F 100% 30.03 in 0.2 mi Calm Calm - N/A Fog Fog
5:33 AM 60.1 °F - 60.1 °F 100% 30.04 in 0.8 mi ESE 3.5 mph - N/A   Overcast
5:51 AM 60.8 °F - 60.8 °F 100% 30.03 in 0.5 mi Calm Calm - N/A Fog Fog
5:59 AM 60.8 °F - 60.8 °F 100% 30.04 in 0.2 mi Calm Calm - N/A Fog Fog
6:51 AM 61.0 °F - 61.0 °F 100% 30.05 in 0.2 mi Calm Calm - N/A Fog Fog
7:35 AM 62.1 °F - 62.1 °F 100% 30.04 in 1.0 mi Calm Calm - N/A   Overcast
7:40 AM 61.0 °F - 61.0 °F 100% 30.04 in 2.0 mi Calm Calm - N/A   Overcast
7:48 AM 60.8 °F - 60.8 °F 100% 30.03 in 3.0 mi Calm Calm - N/A   Overcast
7:51 AM 62.1 °F - 62.1 °F 100% 30.04 in 3.0 mi Calm Calm - N/A   Overcast
8:04 AM 62.1 °F - 62.1 °F 100% 30.04 in 2.5 mi Calm Calm - N/A   Overcast
8:14 AM 62.1 °F - 62.1 °F 100% 30.04 in 4.0 mi Calm Calm - N/A   Overcast
8:32 AM 62.1 °F - 62.1 °F 100% 30.03 in 5.0 mi Calm Calm - N/A   Overcast
8:51 AM 63.0 °F - 62.1 °F 97% 30.04 in 6.0 mi Calm Calm - N/A   Overcast
9:13 AM 66.0 °F - 63.0 °F 90% 30.04 in 7.0 mi South 3.5 mph - N/A   Mostly Cloudy
9:27 AM 68.0 °F - 63.0 °F 84% 30.04 in 9.0 mi Calm Calm - N/A   Scattered Clouds
9:51 AM 72.0 °F - 63.0 °F 73% 30.04 in 10.0 mi Calm Calm - N/A   Clear
10:51 AM 75.9 °F - 64.9 °F 69% 30.04 in 10.0 mi Variable 5.8 mph - N/A   Clear
11:51 AM 80.1 °F 81.7 °F 64.0 °F 58% 30.02 in 10.0 mi NNW 4.6 mph - N/A   Clear
12:51 PM 82.0 °F 83.0 °F 62.1 °F 51% 30.01 in 10.0 mi WSW 4.6 mph - N/A   Scattered Clouds
1:51 PM 82.0 °F 83.1 °F 63.0 °F 52% 30.00 in 10.0 mi Variable 3.5 mph - N/A   Clear
2:51 PM 84.0 °F 84.0 °F 60.1 °F 44% 29.99 in 10.0 mi West 5.8 mph - N/A Thunderstorm Thunderstorm
3:09 PM 82.4 °F 82.9 °F 60.8 °F 48% 29.99 in 10.0 mi WNW 5.8 mph - N/A Thunderstorm Mostly Cloudy
3:18 PM 82.0 °F 82.7 °F 61.0 °F 49% 29.99 in 10.0 mi West 6.9 mph - N/A Thunderstorm Thunderstorm
3:33 PM 82.0 °F 83.0 °F 62.1 °F 51% 29.99 in 10.0 mi WNW 8.1 mph - N/A Thunderstorm Overcast
3:41 PM 82.0 °F 82.7 °F 61.0 °F 49% 29.99 in 10.0 mi WNW 9.2 mph - N/A   Mostly Cloudy
3:51 PM 82.9 °F 84.0 °F 63.0 °F 51% 29.99 in 10.0 mi WNW 8.1 mph - N/A   Mostly Cloudy
4:51 PM 79.0 °F - 64.0 °F 60% 29.99 in 10.0 mi WSW 8.1 mph - N/A   Overcast
5:51 PM 79.0 °F - 62.1 °F 56% 29.99 in 10.0 mi WSW 5.8 mph - N/A   Mostly Cloudy
6:51 PM 79.0 °F - 64.0 °F 60% 30.00 in 10.0 mi SW 4.6 mph - N/A   Clear
7:51 PM 75.9 °F - 64.0 °F 67% 30.01 in 10.0 mi NNW 4.6 mph - N/A   Clear
8:51 PM 69.1 °F - 66.9 °F 93% 30.02 in 10.0 mi South 3.5 mph - N/A   Clear
9:51 PM 68.0 °F - 66.2 °F 94% 30.03 in 10.0 mi Calm Calm - N/A   Clear
10:51 PM 66.0 °F - 64.9 °F 96% 30.02 in 8.0 mi Calm Calm - N/A   Clear
11:51 PM 64.4 °F - 64.4 °F 100% 30.03 in 6.0 mi Calm Calm - N/A   Clear